Regional Weather Roundup
Issued by NWS

Home | Current Version | Previous Version | Graphics & Text | Print | Product List | Glossary On
Versions: 1 2 3 4 5 6 7 8 9 10 11 12 13 14 15 16 17 18 19 20 21 22 23 24 25 26 27 28 29 30 31 32 33 34 35 36 37 38 39 40 41 42 43 44 45 46 47 48 49 50
000
ASUS43 KDMX 300008
RWRIA

WEATHER ROUNDUP FOR IOWA
NATIONAL WEATHER SERVICE DES MOINES IA
700 PM CDT THU SEP 29 2016

NOTE: "FAIR" INDICATES FEW OR NO CLOUDS BELOW 12,000 FEET WITH NO
SIGNIFICANT WEATHER AND/OR OBSTRUCTIONS TO VISIBILITY.

* - THESE STATIONS ARE NOT NWS STATIONS...THUS NOT UNDER NWS
QUALITY CONTROL.  THEY ALSO DO NOT REPORT WEATHER SUCH
AS PRECIPITATION OR FOG.

IAZ001>003-012>014-020>022-031>034-043>046-300100-
   NORTHWEST IOWA

CITY           SKY/WX    TMP DP  RH WIND       PRES   REMARKS
CARROLL *      CLEAR     63  48  59 N6        30.33F
CHEROKEE *     CLEAR     63  48  59 CALM      30.35S
DENISON *      CLEAR     64  46  52 NE5       30.32S
LE MARS *      CLEAR     66  46  48 E3        30.35S
SHELDON *      CLEAR     63  48  59 E6        30.34F
SIOUX CITY     CLEAR     66  49  54 E6        30.33F
6HR MIN TEMP:  66; 6HR MAX TEMP:  73;

SPENCER        CLEAR     61  48  62 E7        30.37S
6HR MIN TEMP:  61; 6HR MAX TEMP:  69;

STORM LAKE *   CLEAR     63  46  55 NE6       30.36S
$$

IAZ055>058-069>071-079>083-090>094-300100-
   SOUTHWEST IOWA

CITY           SKY/WX    TMP DP  RH WIND       PRES   REMARKS
ATLANTIC *     CLEAR     64  45  48 NE5       30.32S
AUDUBON *      CLEAR     63  45  51 N3        30.34S
CLARINDA *       N/A     64  48  55 MISG      30.32S
COUNCIL BLFS * CLEAR     63  48  59 NE6       30.32S
CRESTON *      CLEAR     64  48  55 N7        30.32S
HARLAN  *      CLEAR     64  45  48 CALM      30.36S
LAMONI         CLEAR     64  51  62 N7        30.29S
6HR MIN TEMP:  64; 6HR MAX TEMP:  72;

RED OAK *      CLEAR     64  48  55 N6        30.32S
SHENANDOAH *   CLEAR     64  48  55 NE5       30.31F
$$

IAZ047>049-059>061-072>074-084-300100-
   CENTRAL IOWA

CITY           SKY/WX    TMP DP  RH WIND       PRES   REMARKS
AMES           CLEAR     65  49  56 N6        30.30S
6HR MIN TEMP:  65; 6HR MAX TEMP:  73;

ANKENY *         N/A    N/A N/A N/A MISG        N/A
BOONE *        CLEAR     64  45  48 N7        30.31S HAZE
CHARITON *       N/A     64  50  59 N7        30.27S
DES MOINES     CLEAR     70  46  42 N7        30.29S
6HR MIN TEMP:  70; 6HR MAX TEMP:  76;

GRINNELL*      CLEAR     67  45  45 N5        30.29R
KNOXVILLE *    CLEAR     68  46  45 N7        30.26S
MARSHALLTOWN   CLEAR     65  47  52 N8        30.29S
6HR MIN TEMP:  65; 6HR MAX TEMP:  74;

NEWTON *       CLEAR     66  46  48 N8        30.28R
PELLA *        CLEAR     66  46  48 N3        30.28S
PERRY *          N/A     65  48  53 N6        30.31F
$$

IAZ004>006-015-016-023>025-035-036-300100-
   NORTH CENTRAL IOWA

CITY           SKY/WX    TMP DP  RH WIND       PRES   REMARKS
ALGONA *         N/A     63  48  59 N6        30.36S
CLARION *      CLEAR     64  46  52 N7        30.34S
ESTHERVILLE    CLEAR     59  48  67 NE6       30.37S
6HR MIN TEMP:  58; 6HR MAX TEMP:  66;

FORT DODGE *   CLEAR     63  48  59 N5        30.34S
MASON CITY     CLEAR     63  46  54 N7        30.36S
6HR MIN TEMP:  63; 6HR MAX TEMP:  72;

FOREST CITY *    N/A     59  46  63 CALM      30.35F
WEBSTER CITY * CLEAR     64  46  52 N7        30.31S
IOWA FALLS *     N/A     67  46  47 N5        30.33S
$$

IAZ007>011-017>019-026>030-037>042-050>054-066-300100-
   NORTHEAST IOWA

CITY           SKY/WX    TMP DP  RH WIND       PRES   REMARKS
CEDAR RAPIDS   CLEAR     68  50  52 NE10      30.27R
6HR MIN TEMP:  68; 6HR MAX TEMP:  74;

CHARLES CITY * CLEAR     64  46  52 N7        30.34S
CLINTON *      CLOUDY    66  55  67 NE12      30.27R
DECORAH *      CLEAR     63  52  67 N5        30.33S
DUBUQUE        CLEAR     64  50  60 NE9       30.29R
6HR MIN TEMP:  64; 6HR MAX TEMP:  72;

MONTICELLO *   CLEAR     64  48  55 NE5       30.28R
OELWEIN *      CLEAR     64  52  63 N9        30.32S
WATERLOO       CLEAR     63  47  55 N8        30.30R
6HR MIN TEMP:  63; 6HR MAX TEMP:  74;

$$

IAZ064-065-067-068-078-300100-
   EAST CENTRAL IOWA

CITY           SKY/WX    TMP DP  RH WIND       PRES   REMARKS
DAVENPORT      CLOUDY    66  54  65 E13       30.26R
6HR MIN TEMP:  66; 6HR MAX TEMP:  74;

IOWA CITY      CLEAR     69  49  48 N10       30.27R
6HR MIN TEMP:  69; 6HR MAX TEMP:  76; 6HR PCP: TRACE;

MT. PLEASANT * PTCLDY    68  49  50 N7        30.24R
MUSCATINE *    CLOUDY    70  50  49 N8        30.24R
QUAD CITIES    CLOUDY    68  54  60 NE16G23   30.24R
6HR MIN TEMP:  68; 6HR MAX TEMP:  76;

$$

IAZ062-063-075>077-085>089-095>099-300100-
   SOUTHEAST IOWA

CITY           SKY/WX    TMP DP  RH WIND       PRES   REMARKS
BURLINGTON     CLOUDY    69  52  54 NE9       30.22R
6HR MIN TEMP:  67; 6HR MAX TEMP:  76;

FAIRFIELD *    CLEAR     64  45  48 N7        30.25R
FORT MADISON *   N/A     70  52  52 N7        30.23R
KEOKUK *       MOCLDY    70  50  49 NE8       30.21R
OSKALOOSA *      N/A     66  43  43 N6        30.26S
OTTUMWA        CLEAR     68  42  38 N7        30.24R
6HR MIN TEMP:  68; 6HR MAX TEMP:  77;

WASHINGTON *     N/A    N/A N/A N/A MISG        N/A
$$

ABBREVIATIONS USED IN REMARKS
   TC - TEMPERATURES IN CELSIUS
  WCI - WIND CHILL INDEX
   HX - HEAT INDEX
  VSB - VISIBILITY
$$





USA.gov is the U.S. government's official web portal to all federal, state and local government web resources and services.